Theta_e
308 308 308 308 308 308 308 309 309 309 309 309 310 310 310 309 309 310 310 310 307 306 309 316 320 317 312 313 311 310 312 312 312 312 312 313 314 315 314 316 316 317 332 337 355
307 307 307 306 307 307 307 307 308 308 308 309 308 308 309 309 309 309 308 308 306 310 314 313 317 316 315 314 313 314 314 312 313 313 313 313 314 315 315 316 316 319 356 354 354
306 306 306 306 306 306 306 307 307 308 308 308 308 308 307 308 307 307 315 314 314 318 314 312 314 315 316 314 313 314 314 312 311 313 313 313 313 313 314 314 316 316 328 356 355
305 305 305 305 306 306 306 306 306 306 307 307 307 307 308 309 310 306 318 311 315 323 314 311 314 315 316 315 313 313 312 313 312 312 314 313 313 314 314 315 315 314 314 320 359
305 305 305 305 305 305 305 305 305 305 306 306 306 307 308 308 309 310 322 312 320 316 315 310 312 315 316 316 313 313 313 312 313 312 313 313 314 314 314 315 315 316 316 316 323
304 304 304 304 305 305 304 304 303 305 305 306 306 306 307 308 305 306 306 307 317 316 316 313 311 312 315 314 316 315 314 314 313 313 312 313 313 313 313 315 315 315 316 316 316
303 304 304 304 304 304 303 301 303 304 305 306 306 306 307 307 305 306 306 308 314 316 317 315 313 312 313 314 313 314 315 314 314 314 313 312 313 314 313 314 314 315 315 316 316
303 302 303 303 302 303 302 302 299 303 306 306 306 306 307 306 306 306 306 306 306 312 310 312 315 314 314 314 313 315 316 317 317 313 312 313 316 314 314 314 314 315 315 316 316
302 302 302 302 302 302 302 302 300 306 308 309 306 307 308 306 308 308 307 307 307 308 309 311 316 316 315 315 315 315 314 316 316 316 316 313 317 316 315 313 315 316 316 316 316
302 301 300 302 302 302 302 301 304 309 307 307 307 307 307 306 309 311 313 309 310 310 309 310 318 318 317 317 315 314 315 314 315 315 316 316 316 314 314 315 316 317 317 317 317
301 301 300 301 302 301 302 302 301 304 303 306 307 307 306 307 310 313 313 310 312 312 311 310 321 321 319 318 314 315 315 315 314 315 316 317 317 315 316 315 316 316 316 317 317
301 300 301 301 301 301 301 302 301 302 303 302 302 302 304 306 307 306 311 314 315 318 312 312 320 320 317 316 317 315 315 315 315 315 315 317 318 318 316 317 317 317 318 317 318
299 298 300 301 301 301 301 301 301 301 304 302 302 303 304 304 304 307 307 308 314 315 314 315 316 315 319 319 319 318 316 315 315 313 314 314 316 316 315 316 316 317 318 319 319
297 297 301 300 302 301 303 301 301 302 305 301 308 308 307 310 310 309 310 308 307 313 316 314 314 316 317 320 319 320 317 315 314 315 316 315 316 317 317 317 317 318 318 318 319
297 297 300 301 301 303 303 302 301 303 304 302 306 309 310 313 310 310 313 312 313 312 314 315 315 314 317 320 318 319 317 316 314 315 315 314 315 317 317 317 318 318 320 320 319
297 298 299 301 301 303 302 302 302 310 307 305 307 307 308 307 308 309 315 314 315 316 315 314 313 318 315 319 318 317 316 316 316 315 316 317 316 317 316 317 318 323 328 330 329
298 297 298 299 303 302 302 304 308 308 304 304 306 307 310 310 310 309 312 317 318 321 321 319 316 315 318 317 319 318 317 318 317 317 316 316 316 317 317 317 318 325 335 338 339
297 297 299 301 300 303 303 308 308 304 304 305 310 310 312 311 311 313 313 315 316 316 317 317 321 316 319 320 321 318 317 316 317 317 316 314 317 317 317 316 325 335 335 334 335
298 298 300 299 303 303 306 308 307 309 307 312 310 312 312 311 314 314 313 314 313 316 318 318 323 320 318 320 320 319 317 315 317 316 316 315 316 317 321 330 337 336 334 334 332
299 296 298 299 304 304 306 307 309 304 306 308 312 314 314 313 315 316 315 314 315 317 317 319 325 319 317 322 321 319 317 317 319 319 317 318 317 319 328 333 336 336 335 332 329
298 298 298 299 303 304 304 302 302 303 305 310 313 314 314 315 315 318 316 315 314 315 317 319 321 320 321 321 323 322 319 316 317 321 320 324 320 329 328 333 336 335 332 330 329
298 299 298 299 299 301 301 301 301 304 305 308 310 312 312 314 318 315 315 316 314 316 319 319 320 322 324 320 321 322 320 318 322 322 321 323 328 331 330 335 335 333 330 328 326
298 298 299 300 299 300 300 301 302 305 304 309 309 309 311 312 317 315 315 313 313 314 318 319 321 322 326 321 321 324 320 319 318 321 324 324 335 328 330 334 330 330 327 325 325
299 299 299 299 299 299 301 301 302 302 304 304 306 309 309 308 312 314 314 313 312 313 318 318 320 320 320 320 319 326 320 318 319 323 323 322 335 331 331 330 330 328 325 324 323
299 299 299 300 300 299 300 301 302 303 303 303 308 308 308 309 309 313 312 311 311 315 319 319 324 321 320 319 318 325 322 319 320 319 322 322 328 333 331 329 329 326 324 322 320
299 299 300 300 299 299 300 301 302 302 302 303 307 306 306 308 309 310 312 311 313 314 313 312 321 322 323 325 325 327 323 321 322 322 323 324 327 331 329 326 325 323 322 322 320
297 298 299 300 300 299 300 300 302 302 302 303 303 305 307 308 308 308 308 309 310 312 313 313 316 319 327 327 326 328 325 323 322 322 324 328 330 329 328 327 325 324 323 321 317
Wind_Speed
19 18 18 18 18 18 19 20 20 19 19 19 18 19 22 23 26 24 21 17 8 7 10 5 8 11 10 7 4 4 7 12 14 13 11 3 6 4 1 5 3 2 5 6 16
21 20 20 20 20 19 19 18 18 19 19 18 18 18 19 21 27 32 32 20 16 14 10 15 11 16 7 9 7 10 9 15 6 14 8 3 7 5 3 4 3 2 5 7 15
23 22 22 22 21 20 20 20 19 18 18 17 17 17 15 17 11 8 8 7 7 13 12 16 14 12 12 7 11 10 17 11 9 14 13 12 10 4 5 10 8 0 5 6 10
26 26 27 26 25 24 24 23 22 21 19 18 16 14 13 7 8 1 10 5 7 24 17 19 11 9 10 13 12 11 11 13 9 13 8 12 8 6 13 15 4 3 4 2 10
27 27 28 28 29 29 29 28 26 24 23 20 17 13 7 8 16 11 13 9 9 20 17 18 22 15 15 11 10 18 13 13 19 14 13 8 11 9 9 13 10 13 13 10 11
28 29 29 30 30 31 33 35 35 30 26 21 17 11 8 17 8 11 7 10 14 19 15 13 13 16 13 9 21 5 19 19 14 17 15 17 20 14 9 17 16 11 12 10 8
30 31 31 32 32 33 36 40 41 35 30 26 19 14 15 27 7 4 1 3 8 13 9 17 9 17 9 5 17 8 11 12 18 19 15 6 22 21 15 20 19 15 15 12 11
31 33 32 35 37 37 38 44 43 43 31 25 18 15 12 13 23 27 25 23 20 10 4 5 11 13 7 3 3 12 18 20 14 12 10 17 22 3 22 23 22 18 16 13 14
33 35 34 33 37 41 43 45 37 23 14 8 8 9 12 9 9 17 26 12 20 24 12 9 7 11 11 12 10 13 15 19 15 19 13 20 10 15 15 14 18 16 16 14 12
34 35 37 35 36 40 45 35 10 4 7 11 6 5 8 6 6 4 5 21 6 12 12 12 9 12 15 19 21 19 23 14 17 13 23 22 17 3 8 14 13 14 13 12 11
35 36 38 37 38 44 32 11 4 1 3 8 12 19 20 16 2 7 7 17 4 10 13 20 12 26 45 31 15 10 17 22 15 11 17 27 22 17 13 10 12 13 12 13 11
38 38 39 42 43 25 11 5 2 5 15 19 24 27 36 27 18 24 8 8 11 15 16 14 28 35 14 21 22 17 17 17 12 18 14 13 22 21 21 20 16 16 15 13 11
43 45 42 41 26 8 12 5 1 15 7 13 7 10 9 12 10 15 18 24 17 17 23 23 26 24 24 19 25 26 20 13 6 11 18 5 16 15 16 16 15 17 15 14 14
46 49 46 42 4 14 6 5 7 10 5 7 5 6 5 6 6 11 13 12 19 21 19 22 28 17 31 29 26 26 25 15 13 13 10 12 5 13 20 18 17 17 15 15 14
49 50 45 22 8 7 8 16 14 2 7 2 2 4 4 5 11 3 13 14 13 21 15 28 23 24 22 28 25 23 17 22 16 9 5 9 6 9 9 17 17 18 15 14 14
49 51 43 9 9 12 13 16 2 4 8 6 1 10 10 13 12 7 8 5 1 9 16 28 21 19 27 23 23 13 17 20 17 10 11 18 12 7 10 17 14 10 10 9 10
50 48 22 9 8 21 13 5 4 5 9 5 10 17 19 18 18 9 13 10 7 5 6 8 28 25 21 29 24 22 22 9 11 10 12 19 12 13 8 9 12 13 12 10 10
48 39 13 9 23 11 1 3 7 6 10 17 14 25 17 15 3 8 9 10 6 3 4 4 8 28 24 20 18 30 26 10 14 16 18 5 13 8 23 7 1 12 13 11 11
44 27 10 20 14 2 2 3 4 7 9 10 20 11 6 2 8 9 8 15 12 15 8 4 7 12 23 22 26 30 23 14 6 10 10 9 4 3 10 8 11 14 14 12 12
28 11 9 31 8 5 2 7 4 15 8 7 5 4 8 8 4 3 4 4 7 14 13 4 5 3 26 27 20 26 28 15 6 11 10 12 16 5 12 13 13 15 14 13 14
10 5 13 33 7 3 5 7 15 18 19 5 7 8 5 5 3 3 5 13 7 13 9 7 5 5 13 20 21 9 18 15 10 3 6 7 8 3 7 16 18 16 15 15 16
7 4 17 23 7 3 8 13 19 12 15 7 9 3 4 6 5 4 4 3 14 11 6 4 2 4 6 10 15 21 27 26 14 10 2 3 4 2 6 13 16 16 16 15 16
8 3 9 9 8 10 13 14 12 12 17 5 5 4 9 9 6 6 7 7 11 13 5 3 2 3 3 5 10 20 22 24 19 4 8 6 5 4 10 16 14 18 17 15 19
4 5 4 3 9 11 19 10 14 19 14 19 11 7 16 15 4 10 13 7 21 17 18 4 3 6 5 5 3 15 23 29 16 9 10 5 10 8 14 19 17 17 17 18 19
3 3 2 8 10 16 17 10 21 14 6 15 6 14 19 7 20 6 11 17 10 13 4 2 5 7 11 11 14 25 23 24 20 18 11 10 7 14 16 19 19 19 19 20 19
3 3 2 5 12 16 11 10 18 19 12 14 9 26 21 16 17 24 18 5 7 6 7 10 3 3 6 10 17 26 22 23 17 13 11 14 8 12 16 18 18 19 21 21 19
3 6 3 8 7 11 9 18 21 22 12 13 20 21 19 18 12 15 15 14 14 12 5 3 3 4 2 1 15 19 25 17 22 17 10 10 8 19 19 20 19 20 20 21 19
Wind_Direction
0 356 352 346 339 336 332 331 328 325 323 321 318 315 314 315 310 297 258 235 221 226 216 164 149 161 159 166 150 157 228 232 223 203 231 123 209 192 225 255 297 225 282 319 148
360 357 354 350 344 340 336 329 322 320 317 314 313 312 314 319 311 287 264 247 248 234 191 194 169 161 169 177 181 200 226 225 223 225 248 208 200 155 253 270 239 80 44 111 157
358 354 350 346 342 337 332 328 324 321 315 309 308 305 311 322 305 251 62 168 229 216 194 181 161 165 189 178 186 208 233 220 215 228 243 248 244 238 235 270 234 118 43 137 176
356 353 350 347 342 337 332 327 322 317 311 307 308 309 308 304 294 356 117 13 309 182 177 176 176 185 199 199 197 235 231 225 228 227 222 236 253 232 224 238 168 300 319 266 196
354 351 348 344 340 336 331 326 320 316 310 307 303 304 304 251 244 230 217 300 167 164 187 176 184 192 201 210 205 231 230 217 233 239 229 230 235 237 224 249 256 289 292 271 224
351 348 344 339 335 331 327 324 321 313 305 298 291 285 248 261 248 265 277 241 202 188 196 199 203 201 210 209 209 232 223 233 235 237 240 246 254 240 225 251 261 258 266 276 238
346 344 342 336 332 328 325 322 315 308 301 290 274 250 234 241 226 225 302 4 221 206 206 207 231 186 189 204 230 211 229 232 237 235 239 204 255 239 230 240 249 251 261 260 254
343 342 339 334 330 327 323 321 319 312 299 283 257 232 248 248 268 264 262 262 247 223 223 266 230 250 215 222 126 217 239 242 207 196 217 200 244 197 219 217 238 242 247 242 244
342 340 337 333 325 323 321 319 316 312 314 271 178 193 266 273 247 260 229 219 228 224 235 246 188 215 205 213 212 205 226 225 230 213 205 199 256 240 228 200 224 230 233 237 230
339 334 332 331 325 320 321 326 330 74 92 113 139 185 244 238 216 212 201 193 176 192 216 217 207 200 213 203 215 210 215 209 206 189 213 212 231 233 176 201 218 234 226 235 229
337 334 332 332 328 325 329 338 357 191 322 245 254 247 266 252 265 211 158 165 166 168 186 190 199 208 207 206 234 225 205 215 206 193 195 218 222 222 228 228 238 237 241 233 225
339 337 336 335 328 335 354 10 346 317 297 250 252 260 259 271 282 265 226 195 192 208 193 176 218 221 218 216 222 229 214 213 203 218 207 222 233 223 233 241 234 227 230 235 225
341 342 339 336 336 1 337 336 76 353 277 298 229 244 248 204 222 272 207 228 229 233 207 202 226 218 205 208 210 220 218 197 167 180 210 239 241 219 219 219 217 226 231 231 229
343 342 337 341 359 339 331 344 305 346 290 274 232 249 181 177 224 222 198 193 211 234 228 232 233 196 210 212 203 216 216 217 199 193 189 199 251 215 208 211 207 206 215 225 222
341 341 339 341 297 321 317 317 300 203 296 55 236 128 148 214 313 212 177 176 230 210 199 229 225 227 234 212 206 223 186 205 212 206 194 184 234 228 200 215 209 206 211 222 224
340 339 339 340 304 326 316 330 243 253 253 310 299 347 330 308 282 270 181 193 196 210 246 256 253 222 214 201 203 200 179 193 209 228 237 211 208 212 205 218 203 176 182 190 190
338 339 343 322 314 319 309 309 258 234 329 320 332 329 318 301 305 251 230 201 227 217 215 247 242 241 214 213 194 199 166 155 185 197 216 208 201 225 233 228 212 183 152 147 132
338 339 350 3 329 326 3 242 241 288 298 314 318 315 298 296 291 339 318 282 215 182 273 265 242 221 211 197 183 192 181 174 174 188 204 155 212 223 221 208 123 129 133 130 138
341 341 5 350 345 12 302 264 305 345 318 306 310 281 280 245 345 326 284 271 258 193 206 247 226 272 209 215 172 192 195 194 136 184 162 178 197 230 185 146 134 127 129 133 133
334 334 324 348 353 292 287 324 303 326 306 287 282 291 302 312 266 262 290 311 321 205 214 251 281 260 208 191 217 185 196 203 217 168 179 192 206 156 174 166 151 144 134 120 114
340 345 348 350 348 5 17 315 315 321 318 300 300 288 292 318 250 293 307 304 15 320 212 269 251 204 173 220 193 205 191 202 208 229 183 155 199 116 173 166 159 149 135 130 122
357 349 339 351 26 355 345 323 303 314 329 296 288 313 348 297 299 292 260 270 321 343 271 240 236 259 224 183 241 202 192 195 189 195 191 189 128 27 133 151 149 135 124 121 115
341 300 328 357 14 350 336 323 330 333 324 322 298 344 349 329 306 297 301 293 339 340 295 220 236 291 182 107 244 194 195 198 199 156 192 167 128 102 130 133 131 126 122 120 125
351 340 331 18 354 335 334 329 332 331 305 334 290 291 339 324 314 299 293 313 332 315 298 248 245 245 264 267 282 181 192 194 193 190 170 155 134 143 141 140 138 131 127 132 132
17 348 292 320 334 329 327 305 331 343 317 317 281 316 331 300 310 254 307 316 310 355 1 298 271 257 261 255 253 184 184 174 187 200 199 166 138 164 160 154 146 133 130 135 131
337 328 265 281 304 323 336 328 321 323 321 303 294 308 306 288 279 288 290 297 283 348 7 343 279 306 289 266 195 181 181 186 183 171 138 187 158 144 139 138 133 136 138 140 133
276 273 265 287 322 330 327 322 310 322 302 287 298 304 299 295 283 279 273 268 261 283 316 290 311 337 297 347 147 175 176 181 192 204 170 160 143 143 147 149 148 146 147 139 132